Weather History for KFLP - December, 2012

Change the Weather History Date:

Thursday, December 20, 2012

  Actual Average Record
Temperature  
Mean Temperature 44 °F -  
Max Temperature 57 °F 43 °F 69 °F (2013)
Min Temperature 32 °F 25 °F 8 °F (1996)
Degree Days  
Heating Degree Days 20    
Moisture  
Dew Point 26 °F    
Average Humidity 55    
Maximum Humidity 82    
Minimum Humidity 39    
Precipitation  
Precipitation 0.44 in - - ()
Sea Level Pressure  
Sea Level Pressure 29.83 in    
Wind  
Wind Speed 18 mph (West)    
Max Wind Speed 40 mph    
Max Gust Speed 50 mph    
Visibility 10 miles    
Events      
Averages and records for this station are not official NWS values.
T = Trace of Precipitation, MM = Missing Value Source: NWS Daily Summary

Daily Weather History Graph

Daily Weather History Graph

Search for Another Location

Airport or City:

Trip Planner

Search our weather history database for the weather conditions in past years. The results will help you decide how hot, cold, wet, or windy it might be!

Date:

Astronomy

Dec. 20, 2012 Rise Set
Actual Time 7:17 AM CST 4:58 PM CST
Civil Twilight 6:48 AM CST 5:27 PM CST
Nautical Twilight 6:16 AM CST 5:59 PM CST
Astronomical Twilight 5:45 AM CST 6:31 PM CST
Moon 12:08 PM CST (12/20) 12:14 AM CST (12/20)
Length of Visible Light 10h 38m
Length of Day
9h 41m
First Quarter, 55% of the Moon is Illuminated
Dec 20
First Quarter
Dec 28
Full
Jan 4
Last Quarter
Jan 11
New
Jan 18
First Quarter

Hourly Weather History & Observations

Time (CST) Temp. Windchill Dew Point Humidity Pressure Visibility Wind Dir Wind Speed Gust Speed Precip Events Conditions
12:35 AM 57.2 °F - 50.0 °F 77% 29.46 in 10.0 mi West 11.5 mph 18.4 mph 0.36 in   Overcast
12:55 AM 55.4 °F - 48.2 °F 77% 29.45 in 10.0 mi South 3.5 mph - 0.39 in   Overcast
1:15 AM 55.4 °F - 50.0 °F 82% 29.45 in 10.0 mi South 4.6 mph - 0.03 in   Overcast
1:35 AM 55.4 °F - 50.0 °F 82% 29.45 in 10.0 mi SSW 4.6 mph - 0.04 in   Scattered Clouds
1:55 AM 55.4 °F - 48.2 °F 77% 29.45 in 10.0 mi SSW 6.9 mph - 0.04 in   Clear
2:35 AM 55.4 °F - 48.2 °F 77% 29.43 in 10.0 mi SSW 4.6 mph - N/A   Clear
2:55 AM 53.6 °F - 48.2 °F 82% 29.43 in 10.0 mi South 4.6 mph - N/A   Clear
3:35 AM 55.4 °F - 44.6 °F 67% 29.44 in 10.0 mi SW 17.3 mph 25.3 mph 0.01 in   Clear
4:16 AM 53.6 °F - 39.2 °F 58% 29.46 in 10.0 mi WSW 24.2 mph 32.2 mph N/A   Scattered Clouds
4:35 AM 51.8 °F - 33.8 °F 50% 29.48 in 10.0 mi West 23.0 mph 34.5 mph N/A   Partly Cloudy
4:55 AM 48.2 °F - 33.8 °F 58% 29.49 in 10.0 mi WSW 24.2 mph 33.4 mph N/A   Mostly Cloudy
5:35 AM 48.2 °F - 33.8 °F 58% 29.50 in 10.0 mi WSW 32.2 mph 39.1 mph N/A   Overcast
5:55 AM 46.4 °F 35.8 °F 32.0 °F 57% 29.55 in 10.0 mi West 40.3 mph 49.5 mph N/A   Overcast
6:15 AM 42.8 °F 32.1 °F 28.4 °F 57% 29.58 in 10.0 mi West 31.1 mph 41.4 mph N/A   Overcast
6:35 AM 42.8 °F 31.6 °F 28.4 °F 57% 29.60 in 10.0 mi West 34.5 mph 41.4 mph N/A   Overcast
6:55 AM 39.2 °F 27.6 °F 26.6 °F 61% 29.63 in 10.0 mi West 28.8 mph 43.7 mph N/A   Overcast
7:15 AM 39.2 °F 29.8 °F 26.6 °F 61% 29.65 in 10.0 mi West 18.4 mph 43.7 mph N/A   Overcast
7:55 AM 37.4 °F 26.4 °F 24.8 °F 60% 29.69 in 10.0 mi West 23.0 mph 38.0 mph N/A   Overcast
8:15 AM 37.4 °F 25.2 °F 24.8 °F 60% 29.70 in 10.0 mi West 28.8 mph 33.4 mph N/A   Overcast
8:35 AM 37.4 °F 25.0 °F 23.0 °F 56% 29.72 in 10.0 mi West 29.9 mph 46.0 mph N/A   Overcast
8:56 AM 35.6 °F 23.4 °F 23.0 °F 60% 29.74 in 10.0 mi West 25.3 mph 36.8 mph N/A   Overcast
9:15 AM 35.6 °F 22.5 °F 21.2 °F 56% 29.76 in 10.0 mi West 29.9 mph 44.9 mph N/A   Overcast
9:35 AM 35.6 °F 23.0 °F 21.2 °F 56% 29.77 in 10.0 mi WNW 27.6 mph 38.0 mph N/A   Overcast
10:15 AM 35.6 °F 23.2 °F 23.0 °F 60% 29.81 in 10.0 mi WNW 26.5 mph 40.3 mph N/A   Overcast
11:15 AM 37.4 °F 27.2 °F 24.8 °F 60% 29.84 in 10.0 mi WNW 19.6 mph 33.4 mph N/A   Overcast
11:35 AM 37.4 °F 25.6 °F 24.8 °F 60% 29.85 in 10.0 mi WNW 26.5 mph 40.3 mph N/A   Overcast
11:55 AM 39.2 °F 29.0 °F 24.8 °F 56% 29.86 in 10.0 mi WNW 21.9 mph 39.1 mph N/A   Overcast
12:15 PM 39.2 °F 27.8 °F 24.8 °F 56% 29.87 in 10.0 mi WNW 27.6 mph 38.0 mph N/A   Overcast
12:35 PM 39.2 °F 28.3 °F 23.0 °F 52% 29.88 in 10.0 mi WNW 25.3 mph 38.0 mph N/A   Overcast
12:55 PM 39.2 °F 28.3 °F 23.0 °F 52% 29.90 in 10.0 mi WNW 25.3 mph 38.0 mph N/A   Overcast
1:15 PM 37.4 °F 26.4 °F 21.2 °F 52% 29.92 in 10.0 mi WNW 23.0 mph 35.7 mph N/A   Overcast
1:35 PM 39.2 °F 28.3 °F 21.2 °F 49% 29.92 in 10.0 mi WNW 25.3 mph 36.8 mph N/A   Overcast
1:55 PM 39.2 °F 28.0 °F 21.2 °F 49% 29.94 in 10.0 mi WNW 26.5 mph 32.2 mph N/A   Overcast
2:15 PM 39.2 °F 28.3 °F 21.2 °F 49% 29.95 in 10.0 mi WNW 25.3 mph 38.0 mph N/A   Overcast
2:35 PM 39.2 °F 29.8 °F 21.2 °F 49% 29.96 in 10.0 mi WNW 18.4 mph 40.3 mph N/A   Scattered Clouds
3:55 PM 41.0 °F 29.8 °F 19.4 °F 42% 30.01 in 10.0 mi WNW 29.9 mph 40.3 mph N/A   Partly Cloudy
4:15 PM 41.0 °F 31.6 °F 17.6 °F 39% 30.03 in 10.0 mi WNW 20.7 mph 33.4 mph N/A   Partly Cloudy
4:35 PM 39.2 °F 29.3 °F 17.6 °F 42% 30.04 in 10.0 mi West 20.7 mph 35.7 mph N/A   Partly Cloudy
4:55 PM 39.2 °F 29.3 °F 15.8 °F 39% 30.05 in 10.0 mi WNW 20.7 mph 27.6 mph N/A   Clear
5:15 PM 37.4 °F 28.5 °F 15.8 °F 41% 30.07 in 10.0 mi WNW 15.0 mph 25.3 mph N/A   Clear
5:55 PM 37.4 °F 26.9 °F 15.8 °F 41% 30.08 in 10.0 mi WNW 20.7 mph 29.9 mph N/A   Clear
6:15 PM 37.4 °F 28.2 °F 15.8 °F 41% 30.10 in 10.0 mi WNW 16.1 mph 27.6 mph N/A   Clear
6:35 PM 37.4 °F 26.9 °F 15.8 °F 41% 30.10 in 10.0 mi WNW 20.7 mph 28.8 mph N/A   Clear
6:55 PM 37.4 °F 27.2 °F 15.8 °F 41% 30.11 in 10.0 mi WNW 19.6 mph 28.8 mph N/A   Clear
7:15 PM 35.6 °F 27.5 °F 15.8 °F 44% 30.13 in 10.0 mi WNW 11.5 mph 27.6 mph N/A   Clear
8:15 PM 35.6 °F 25.5 °F 15.8 °F 44% 30.15 in 10.0 mi WNW 17.3 mph 25.3 mph N/A   Clear
8:35 PM 35.6 °F 24.5 °F 15.8 °F 44% 30.16 in 10.0 mi WNW 20.7 mph 26.5 mph N/A   Clear
8:55 PM 35.6 °F 25.2 °F 15.8 °F 44% 30.16 in 10.0 mi WNW 18.4 mph 32.2 mph N/A   Clear
10:15 PM 33.8 °F 22.8 °F 15.8 °F 48% 30.18 in 10.0 mi WNW 18.4 mph 24.2 mph N/A   Clear
10:35 PM 33.8 °F 23.9 °F 15.8 °F 48% 30.19 in 10.0 mi WNW 15.0 mph 21.9 mph N/A   Clear
10:55 PM 33.8 °F 23.2 °F 15.8 °F 48% 30.19 in 10.0 mi WNW 17.3 mph 23.0 mph N/A   Clear
11:15 PM 32.0 °F 21.6 °F 15.8 °F 51% 30.20 in 10.0 mi WNW 15.0 mph 25.3 mph N/A   Clear
11:35 PM 32.0 °F 21.6 °F 14.0 °F 48% 30.20 in 10.0 mi WNW 15.0 mph 20.7 mph N/A   Clear
11:55 PM 32.0 °F 22.5 °F 12.2 °F 44% 30.21 in 10.0 mi WNW 12.7 mph - N/A   Clear